Starlink 30593

operational
NORAD ID: 58112 Int'l Des: 2023-161 Owner: SPXS Country: US Constellation: starlink
LEOCIRCULAR

Über Starlink 30593

Beschreibung wird geladen...

Live-Position

3D-Globus wird geladen...

Nächste Überflüge

Höhenverlauf

Altitude vs Time

uPlot chart will show altitude changes over time

Zweizeiliger Elementsatz

1 58112U 23161R 25347.03987472 .00002586 00000-0 99457-4 0 9990
2 58112 53.1582 208.1140 0001315 92.1681 267.9471 15.30187802121157
Epoch: 13. Dez. 2025 • Age: 29 hours

Aktueller Status

Höhe 480.7 km
Geschwindigkeit 7.63 km/s
Subsatellitenpunkt 52.36°N, 140.33°E
Startdatum 21. Okt. 2023
Alter 2.1 years
Typ internet

Technische Details

Klassifizierung Payload
Masse 730.00 kg
Trockenmasse 700.00 kg
Gesamtmasse 730.00 kg
Länge 0.30 m
Durchmesser 4.10 m
Spannweite 29.00 m
Form Box + pan
Hersteller SPXS
Bus-Typ Starlink V2M
Phasenstatus In Orbit
Besitzer/Staat SPXS/US

Große Konstellationen

Loading constellations...